Regional Weather Roundup
Issued by NWS Kansas City/Pleasant Hill, MO

Home | Current Version | Previous Version | Graphics & Text | Print | Product List | Glossary Off
Versions: 1 2 3 4 5 6 7 8 9 10 11 12 13 14 15 16 17 18 19 20 21 22 23 24 25 26 27 28 29 30 31 32 33 34 35 36 37 38 39 40 41 42 43 44 45 46 47 48 49 50

000
ASUS43 KEAX 011510
RWREAX

WEATHER ROUNDUP FOR EASTERN KANSAS AND NORTHWEST MISSOURI
NATIONAL WEATHER SERVICE KANSAS CITY/PLEASANT HILL MO
1000 AM CDT WED JUL 01 2015

KSZ040-057-103>105-MOZ028-029-037-043-011600-
...KANSAS CITY METROPOLITAN AREA...

CITY           SKY/WX    TMP DP  RH WIND       PRES   REMARKS
K.C. INTL      PTSUNNY   71  69  93 S16       29.83F
K.C. DOWNTOWN  PTSUNNY   73  68  84 S15       29.83F
LEES SUMMIT    PTSUNNY   72  68  87 S8        29.87R
OLATHE - IXD   PTSUNNY   74  69  85 SE14      29.86F
OLATHE - OJC   PTSUNNY   73  69  87 S16G22    29.86S
LAWRENCE       PTSUNNY   75  68  78 SE14      29.84S

$$

MOZ001>008-011>017-020>025-030>033-038>040-044>046-053-054-011600-
...NORTHERN AND CENTRAL MISSOURI...

CITY           SKY/WX    TMP DP  RH WIND       PRES   REMARKS
ST. JOSEPH     PTSUNNY   75  69  81 NE7       29.85R
MOSBY          LGT RAIN  70  68  94 E9        29.82F
HARRISONVILLE  PTSUNNY   73  70  88 S9G18     29.89F
WARRENSBURG    CLOUDY    70  68  94 S14       29.87F
WHITEMAN AFB   TSTM      70  70 100 S21       29.86F
CLINTON        CLOUDY    70  70 100 S14G21    29.92F
SEDALIA        CLOUDY    71  68  90 S15       29.93F
WARSAW         LGT RAIN  70  70 100 SE8G18    29.94F
CHILLICOTHE      N/A     75  69  81 VRB6      29.88R
KIRKSVILLE     MOSUNNY   75  67  76 S3        29.92R

$$

MOZ041-047>049-056>058-063>065-088>090-097-011600-
...EASTERN AND SOUTHERN MISSOURI...

CITY           SKY/WX    TMP DP  RH WIND       PRES   REMARKS
ST. LOUIS INTL CLOUDY    75  66  73 W14       29.94R
SPIRIT OF STL  CLOUDY    72  69  90 SW5       29.92F
COLUMBIA       CLOUDY    72  69  90 S14       29.93R
JEFFERSON CITY CLOUDY    71  68  90 S8G20     29.93S
MEXICO         CLOUDY   N/A N/A N/A S8        29.92F
ROLLA          LGT RAIN  66  66 100 S14G22    29.97F FOG
LEBANON        RAIN      66  64  94 S14       30.00F
OSAGE BEACH    CLOUDY    68  64  88 SE12      29.97F
SPRINGFIELD    CLOUDY    69  66  90 E9        30.00F
BRANSON        CLOUDY    70  66  88 CALM      30.02R
NEVADA         CLOUDY    70  68  94 SE15      29.95F
JOPLIN         CLOUDY    79  72  79 VRB5      29.95R
WEST PLAINS    RAIN      68  65  90 N12       30.05R FOG
MALDEN         RAIN      73  70  88 NW16      30.00R

$$

IAZ060-094-KSZ022-034>040-054-083-096-NEZ052-066-093-011600-
...KANSAS...SOUTHEAST NEBRASKA AND IOWA...

CITY           SKY/WX    TMP DP  RH WIND       PRES   REMARKS
TOPEKA         MOSUNNY   76  69  79 SE15      29.82S
MANHATTAN      MOSUNNY   81  69  67 S6        29.79S
EMPORIA        CLOUDY    80  66  62 S9        29.83F
CHANUTE        CLOUDY    80  73  79 SE8       29.88F
WICHITA        PTSUNNY   86  63  45 SW20G28   29.82F
OMAHA          PTSUNNY   74  67  78 NE8       29.89R
LINCOLN        CLOUDY    74  68  81 E14       29.87R
FALLS CITY     PTSUNNY   76  69  79 E10       29.84R
LAMONI         LGT RAIN  70  67  90 SE8       29.88F FOG
DES MOINES     CLOUDY    70  61  73 E13       29.89F

$$




USA.gov is the U.S. government's official web portal to all federal, state and local government web resources and services.